| time (UTC) | temp F | wind direction | speed knots | gust knots | rain 1hr in | rain 24hr in | rain mn in | humidity % | barometer mb |
| 20260507142753 | 60 | 261 | 1.7 | 2.6 | 0.00 | 0.00 | 0.00 | 70 | 1010.8 |
| 20260507141740 | 61 | 242 | 1.7 | 2.6 | 0.00 | 0.00 | 0.00 | 69 | 1011.0 |
| 20260507140722 | 62 | 271 | 0.9 | 0.9 | 0.00 | 0.00 | 0.00 | 68 | 1010.7 |
| 20260507135657 | 63 | 277 | 0.9 | 1.7 | 0.00 | 0.00 | 0.00 | 68 | 1010.9 |
| 20260507134639 | 61 | 98 | 1.7 | 2.6 | 0.00 | 0.00 | 0.00 | 69 | 1011.0 |
| 20260507133626 | 63 | 271 | 1.7 | 3.5 | 0.00 | 0.00 | 0.00 | 67 | 1011.1 |
| 20260507132602 | 62 | 265 | 1.7 | 1.7 | 0.00 | 0.00 | 0.00 | 67 | 1011.1 |
| 20260507131539 | 61 | 219 | 1.7 | 3.5 | 0.00 | 0.00 | 0.00 | 69 | 1011.1 |
| 20260507130529 | 62 | 307 | 0.0 | 0.9 | 0.00 | 0.00 | 0.00 | 68 | 1011.1 |
| 20260507125505 | 61 | 263 | 1.7 | 2.6 | 0.00 | 0.00 | 0.00 | 69 | 1011.2 |
| 20260507124442 | 60 | 208 | 0.0 | 0.9 | 0.00 | 0.00 | 0.00 | 69 | 1011.3 |
| 20260507123433 | 61 | 124 | 1.7 | 3.5 | 0.00 | 0.00 | 0.00 | 69 | 1011.2 |
| 20260507122426 | 62 | 275 | 0.9 | 1.7 | 0.00 | 0.00 | 0.00 | 68 | 1011.4 |
| 20260507121403 | 63 | 285 | 0.9 | 1.7 | 0.00 | 0.00 | 0.00 | 67 | 1011.3 |
| 20260507120354 | 60 | 248 | 0.0 | 0.9 | 0.00 | 0.00 | 0.00 | 71 | 1011.4 |
| 20260507114322 | 61 | 263 | 0.0 | 1.7 | 0.00 | 0.00 | 0.00 | 73 | 1011.4 |
| 20260507113258 | 61 | 256 | 0.0 | 0.9 | 0.00 | 0.00 | 0.00 | 69 | 1011.5 |
| 20260507112233 | 62 | 264 | 0.0 | 0.9 | 0.00 | 0.00 | 0.00 | 73 | 1011.7 |
| 20260507111209 | 61 | 228 | 0.0 | 0.9 | 0.00 | 0.00 | 0.00 | 70 | 1011.8 |
| 20260507110201 | 61 | 243 | 0.0 | 0.9 | 0.00 | 0.00 | 0.00 | 70 | 1011.8 |
| 20260507105153 | 61 | 180 | 1.7 | 2.6 | 0.00 | 0.00 | 0.00 | 67 | 1012.1 |
| 20260507104145 | 60 | 122 | 0.9 | 2.6 | 0.00 | 0.00 | 0.00 | 71 | 1011.9 |
| 20260507103137 | 59 | 263 | 0.9 | 1.7 | 0.00 | 0.00 | 0.00 | 72 | 1012.0 |
| 20260507102130 | 57 | 245 | 1.7 | 2.6 | 0.00 | 0.00 | 0.00 | 74 | 1012.2 |
| 20260507101121 | 60 | 264 | 0.0 | 1.7 | 0.00 | 0.00 | 0.00 | 72 | 1011.9 |
| 20260507100058 | 58 | 256 | 0.0 | 0.9 | 0.00 | 0.00 | 0.00 | 75 | 1012.0 |
| 20260507095039 | 60 | 254 | 0.0 | 0.9 | 0.00 | 0.00 | 0.00 | 74 | 1011.7 |
| 20260507094025 | 58 | 251 | 1.7 | 3.5 | 0.00 | 0.00 | 0.00 | 72 | 1011.7 |
| 20260507093002 | 59 | 248 | 0.0 | 0.9 | 0.00 | 0.00 | 0.00 | 75 | 1011.7 |
| 20260507091938 | 59 | 235 | 1.7 | 4.3 | 0.00 | 0.00 | 0.00 | 75 | 1011.6 |
| 20260507090914 | 58 | 203 | 0.9 | 1.7 | 0.00 | 0.00 | 0.00 | 75 | 1011.7 |
| 20260507085906 | 57 | 242 | 1.7 | 2.6 | 0.00 | 0.00 | 0.00 | 76 | 1011.4 |
| 20260507084842 | 57 | 209 | 3.5 | 4.3 | 0.00 | 0.00 | 0.00 | 76 | 1011.5 |
| 20260507083833 | 57 | 231 | 2.6 | 3.5 | 0.00 | 0.00 | 0.00 | 76 | 1011.4 |
| 20260507082825 | 55 | 254 | 4.3 | 5.2 | 0.00 | 0.00 | 0.00 | 78 | 1011.4 |
| 20260507081802 | 55 | 244 | 2.6 | 2.6 | 0.00 | 0.00 | 0.00 | 77 | 1011.4 |
| 20260507080753 | 56 | 248 | 3.5 | 4.3 | 0.00 | 0.00 | 0.00 | 75 | 1011.4 |
| 20260507075740 | 55 | 253 | 0.0 | 0.0 | 0.00 | 0.00 | 0.00 | 76 | 1011.6 |
| 20260507074722 | 56 | 244 | 0.0 | 0.0 | 0.00 | 0.00 | 0.00 | 73 | 1011.7 |
| 20260507073658 | 55 | 248 | 0.0 | 0.9 | 0.00 | 0.00 | 0.00 | 69 | 1011.6 |
| 20260507072640 | 54 | 278 | 0.0 | 0.9 | 0.00 | 0.00 | 0.00 | 71 | 1011.7 |
| 20260507071626 | 52 | 282 | 0.0 | 0.0 | 0.00 | 0.00 | 0.00 | 77 | 1011.3 |
| 20260507070602 | 49 | 283 | 0.0 | 0.0 | 0.00 | 0.00 | 0.00 | 83 | 1011.5 |
| 20260507065539 | 47 | 285 | 0.0 | 0.0 | 0.00 | 0.00 | 0.00 | 82 | 1011.6 |
| 20260507064530 | 47 | 286 | 0.0 | 0.0 | 0.00 | 0.00 | 0.00 | 81 | 1011.5 |
| 20260507063506 | 48 | 286 | 0.0 | 0.0 | 0.00 | 0.00 | 0.00 | 80 | 1011.5 |
| 20260507062443 | 48 | 285 | 0.0 | 0.0 | 0.00 | 0.00 | 0.00 | 81 | 1011.6 |
| 20260507061418 | 48 | 295 | 0.9 | 0.9 | 0.00 | 0.00 | 0.00 | 77 | 1011.5 |
| 20260507060355 | 45 | 308 | 0.0 | 0.0 | 0.00 | 0.00 | 0.00 | 84 | 1011.4 |
| 20260507055340 | 43 | 328 | 0.0 | 0.9 | 0.00 | 0.00 | 0.00 | 89 | 1011.4 |
| 20260507054323 | 42 | 313 | 0.0 | 0.0 | 0.00 | 0.00 | 0.00 | 95 | 1011.2 |
| 20260507053258 | 42 | 309 | 0.0 | 0.0 | 0.00 | 0.00 | 0.00 | 96 | 1011.1 |
| 20260507052240 | 41 | 309 | 0.0 | 0.0 | 0.00 | 0.00 | 0.00 | 96 | 1011.2 |
| 20260507051225 | 41 | 311 | 0.0 | 0.0 | 0.00 | 0.00 | 0.00 | 96 | 1011.0 |
| 20260507050202 | 40 | 297 | 0.0 | 0.0 | 0.00 | 0.00 | 0.00 | 98 | 1010.7 |
| 20260507045139 | 40 | 302 | 0.0 | 0.0 | 0.00 | 0.00 | 0.00 | 98 | 1010.7 |
| 20260507044114 | 40 | 302 | 0.0 | 0.0 | 0.00 | 0.00 | 0.00 | 97 | 1010.7 |
| 20260507043050 | 40 | 301 | 0.0 | 0.0 | 0.00 | 0.00 | 0.00 | 97 | 1010.5 |
| 20260507042040 | 40 | 302 | 0.0 | 0.0 | 0.00 | 0.00 | 0.00 | 96 | 1010.6 |
| 20260507041018 | 41 | 302 | 1.7 | 1.7 | 0.00 | 0.00 | 0.00 | 96 | 1010.2 |
| 20260507035954 | 41 | 302 | 0.0 | 0.0 | 0.00 | 0.00 | 0.00 | 97 | 1010.2 |
| 20260507034940 | 41 | 302 | 0.0 | 0.0 | 0.00 | 0.00 | 0.00 | 98 | 1010.3 |
| 20260507033922 | 41 | 302 | 0.0 | 0.0 | 0.00 | 0.00 | 0.00 | 97 | 1010.4 |
| 20260507032858 | 42 | 302 | 0.0 | 0.0 | 0.00 | 0.00 | 0.00 | 97 | 1010.3 |
| 20260507031839 | 42 | 302 | 0.0 | 0.0 | 0.00 | 0.00 | 0.00 | 97 | 1010.2 |
| 20260507030826 | 42 | 302 | 0.0 | 0.0 | 0.00 | 0.00 | 0.00 | 97 | 1010.5 |
| 20260507025802 | 41 | 302 | 0.0 | 0.0 | 0.00 | 0.00 | 0.00 | 97 | 1010.4 |
| 20260507024738 | 42 | 296 | 0.0 | 0.0 | 0.00 | 0.00 | 0.00 | 97 | 1010.1 |
| 20260507023714 | 42 | 309 | 0.0 | 0.0 | 0.00 | 0.00 | 0.00 | 97 | 1010.1 |
| 20260507022650 | 42 | 308 | 0.0 | 0.0 | 0.00 | 0.00 | 0.00 | 98 | 1010.1 |
| 20260507021640 | 42 | 309 | 0.0 | 0.0 | 0.00 | 0.00 | 0.00 | 98 | 1010.0 |
| 20260507020617 | 42 | 310 | 0.0 | 0.0 | 0.00 | 0.00 | 0.00 | 98 | 1010.0 |
| 20260507015554 | 42 | 309 | 0.0 | 0.0 | 0.00 | 0.00 | 0.00 | 97 | 1009.9 |
| 20260507014540 | 42 | 309 | 0.0 | 0.0 | 0.00 | 0.00 | 0.00 | 97 | 1010.0 |
| 20260507013522 | 43 | 312 | 0.0 | 0.0 | 0.00 | 0.00 | 0.00 | 97 | 1010.0 |
| 20260507012459 | 42 | 316 | 0.0 | 0.0 | 0.00 | 0.00 | 0.00 | 97 | 1010.0 |
| 20260507011433 | 44 | 289 | 0.9 | 1.7 | 0.00 | 0.00 | 0.00 | 97 | 1009.8 |
| 20260507010410 | 43 | 313 | 0.0 | 0.0 | 0.00 | 0.00 | 0.00 | 97 | 1010.1 |
| 20260507005346 | 44 | 334 | 0.9 | 1.7 | 0.00 | 0.00 | 0.00 | 99 | 1010.0 |
| 20260507004343 | 44 | 302 | 0.0 | 0.0 | 0.00 | 0.00 | 0.00 | 99 | 1010.1 |
| 20260507003314 | 44 | 288 | 0.0 | 0.0 | 0.00 | 0.00 | 0.00 | 99 | 1010.0 |
| 20260507002250 | 44 | 288 | 0.0 | 0.0 | 0.00 | 0.00 | 0.00 | 99 | 1010.0 |
| 20260507001241 | 45 | 289 | 0.0 | 0.0 | 0.00 | 0.00 | 0.00 | 98 | 1009.8 |
| 20260507000219 | 45 | 289 | 0.0 | 0.0 | 0.00 | 0.00 | 0.00 | 98 | 1009.7 |
| 20260506235154 | 45 | 289 | 0.0 | 0.0 | 0.00 | 0.00 | 0.00 | 98 | 1009.6 |
| 20260506234139 | 46 | 287 | 0.0 | 0.0 | 0.00 | 0.00 | 0.00 | 98 | 1009.7 |
| 20260506233122 | 46 | 286 | 0.0 | 0.0 | 0.00 | 0.00 | 0.00 | 98 | 1010.1 |
| 20260506232057 | 46 | 288 | 0.0 | 0.0 | 0.00 | 0.00 | 0.00 | 98 | 1009.8 |
| 20260506231039 | 46 | 289 | 0.0 | 0.0 | 0.00 | 0.00 | 0.00 | 98 | 1009.7 |
| 20260506230026 | 46 | 289 | 0.0 | 0.0 | 0.00 | 0.00 | 0.00 | 98 | 1009.7 |
| 20260506225002 | 46 | 290 | 0.0 | 0.0 | 0.00 | 0.00 | 0.20 | 98 | 1009.6 |
| 20260506223938 | 45 | 289 | 0.0 | 0.0 | 0.00 | 0.00 | 0.20 | 97 | 1009.4 |
| 20260506222914 | 46 | 289 | 0.0 | 0.0 | 0.00 | 0.00 | 0.20 | 97 | 1009.5 |
| 20260506221850 | 47 | 289 | 0.0 | 0.0 | 0.00 | 0.00 | 0.20 | 96 | 1009.5 |
| 20260506220839 | 47 | 289 | 0.0 | 0.0 | 0.00 | 0.00 | 0.20 | 96 | 1009.2 |
| 20260506215818 | 48 | 292 | 0.0 | 0.0 | 0.00 | 0.00 | 0.20 | 95 | 1009.1 |
| 20260506214755 | 48 | 290 | 0.9 | 1.7 | 0.00 | 0.00 | 0.20 | 95 | 1009.2 |
| 20260506213740 | 48 | 313 | 0.0 | 0.9 | 0.00 | 0.00 | 0.20 | 95 | 1009.1 |
| 20260506212722 | 48 | 302 | 0.0 | 0.0 | 0.00 | 0.00 | 0.20 | 95 | 1009.0 |
| 20260506211658 | 49 | 309 | 1.7 | 1.7 | 0.00 | 0.00 | 0.20 | 96 | 1008.9 |
| 20260506210641 | 49 | 290 | 0.0 | 0.9 | 0.00 | 0.00 | 0.20 | 95 | 1008.7 |
| 20260506205626 | 49 | 290 | 0.0 | 0.0 | 0.00 | 0.00 | 0.20 | 94 | 1008.9 |
| 20260506204602 | 50 | 302 | 1.7 | 1.7 | 0.00 | 0.00 | 0.20 | 94 | 1008.9 |
| 20260506203553 | 50 | 296 | 0.9 | 0.9 | 0.00 | 0.00 | 0.20 | 93 | 1008.9 |
| 20260506202540 | 50 | 303 | 1.7 | 1.7 | 0.00 | 0.00 | 0.20 | 91 | 1008.5 |
| 20260506201522 | 50 | 302 | 1.7 | 1.7 | 0.00 | 0.00 | 0.20 | 91 | 1008.4 |
| 20260506200458 | 51 | 301 | 0.0 | 0.9 | 0.00 | 0.00 | 0.20 | 90 | 1008.1 |
| 20260506195440 | 51 | 294 | 1.7 | 2.6 | 0.00 | 0.00 | 0.20 | 90 | 1008.0 |
| 20260506194426 | 52 | 300 | 1.7 | 1.7 | 0.00 | 0.00 | 0.20 | 89 | 1007.7 |
| 20260506193402 | 52 | 299 | 0.0 | 0.9 | 0.00 | 0.00 | 0.20 | 88 | 1007.6 |
| 20260506192338 | 52 | 301 | 1.7 | 1.7 | 0.00 | 0.00 | 0.20 | 87 | 1007.3 |
| 20260506191314 | 53 | 297 | 2.6 | 2.6 | 0.00 | 0.00 | 0.20 | 86 | 1007.2 |
| 20260506190250 | 54 | 289 | 3.5 | 3.5 | 0.00 | 0.00 | 0.20 | 86 | 1007.0 |
| 20260506185240 | 53 | 298 | 1.7 | 2.6 | 0.00 | 0.00 | 0.20 | 85 | 1006.8 |
| 20260506184218 | 53 | 289 | 0.9 | 1.7 | 0.00 | 0.00 | 0.20 | 82 | 1006.3 |
| 20260506183154 | 53 | 309 | 2.6 | 2.6 | 0.00 | 0.00 | 0.20 | 79 | 1006.3 |
| 20260506182141 | 54 | 312 | 3.5 | 3.5 | 0.00 | 0.00 | 0.20 | 74 | 1006.2 |
| 20260506181122 | 55 | 308 | 1.7 | 2.6 | 0.00 | 0.00 | 0.20 | 74 | 1005.9 |
| 20260506180059 | 59 | 312 | 0.9 | 1.7 | 0.00 | 0.00 | 0.20 | 70 | 1005.5 |
| 20260506175040 | 59 | 304 | 0.0 | 0.0 | 0.00 | 0.00 | 0.20 | 70 | 1005.4 |
| 20260506174026 | 62 | 285 | 0.9 | 1.7 | 0.00 | 0.00 | 0.20 | 73 | 1005.5 |
| 20260506173002 | 65 | 310 | 0.0 | 0.9 | 0.00 | 0.00 | 0.20 | 66 | 1005.3 |
| 20260506171938 | 65 | 239 | 0.0 | 0.0 | 0.00 | 0.00 | 0.20 | 65 | 1005.2 |
| 20260506170914 | 66 | 268 | 0.9 | 1.7 | 0.00 | 0.00 | 0.20 | 66 | 1005.1 |
| 20260506165851 | 65 | 204 | 0.0 | 0.9 | 0.00 | 0.00 | 0.20 | 68 | 1004.8 |
| 20260506164840 | 66 | 191 | 0.9 | 1.7 | 0.00 | 0.00 | 0.20 | 66 | 1005.1 |
| 20260506163819 | 66 | 266 | 1.7 | 2.6 | 0.00 | 0.00 | 0.20 | 64 | 1004.9 |
| 20260506162754 | 66 | 252 | 0.0 | 0.9 | 0.00 | 0.00 | 0.20 | 64 | 1005.0 |
| 20260506161740 | 67 | 268 | 3.5 | 3.5 | 0.00 | 0.00 | 0.20 | 61 | 1004.9 |
| 20260506160722 | 67 | 134 | 0.9 | 0.9 | 0.00 | 0.00 | 0.20 | 62 | 1004.7 |
| 20260506155659 | 68 | 147 | 0.0 | 0.9 | 0.00 | 0.00 | 0.20 | 63 | 1004.6 |
| 20260506154640 | 66 | 246 | 0.9 | 1.7 | 0.00 | 0.00 | 0.20 | 67 | 1004.5 |
| 20260506153626 | 67 | 263 | 4.3 | 5.2 | 0.00 | 0.00 | 0.20 | 63 | 1004.8 |
| 20260506152602 | 69 | 351 | 0.9 | 1.7 | 0.00 | 0.00 | 0.20 | 50 | 1004.7 |
| 20260506151538 | 68 | 133 | 3.5 | 4.3 | 0.00 | 0.00 | 0.20 | 33 | 1004.9 |
| 20260506150514 | 67 | 46 | 1.7 | 3.5 | 0.00 | 0.00 | 0.20 | 38 | 1004.7 |
| 20260506145450 | 67 | 9 | 1.7 | 2.6 | 0.00 | 0.00 | 0.20 | 43 | 1004.9 |
| 20260506144440 | 65 | 308 | 2.6 | 2.6 | 0.00 | 0.00 | 0.20 | 54 | 1004.8 |
| 20260506143419 | 64 | 333 | 0.0 | 0.0 | 0.00 | 0.00 | 0.20 | 45 | 1004.8 |